N5271N TJIG-TJSJ

Flight info

Callsign N5271N
Flight time 0h 28m
Altitude VFR
Route APPROACHES
Aircraft C172/L-VGD/C

Departure

Time 2026-04-30 01:12
Airport Fernando Luis Ribas Dominicci Airport (TJIG)

Arrival

Time 2026-04-30 01:40
Airport Luis Munoz Marin International Airport (TJSJ)
Time Latitude Longitude Altitude Speed Heading
2026-04-30 01:11 18.48513 -66.16338 1430 ft 110 kts 272°
2026-04-30 01:12 18.48516 -66.17131 1645 ft 107 kts 271°
2026-04-30 01:12 18.48518 -66.17916 1859 ft 106 kts 271°
2026-04-30 01:12 18.48519 -66.18681 2046 ft 104 kts 272°
2026-04-30 01:12 18.48519 -66.19457 2069 ft 110 kts 272°
2026-04-30 01:13 18.48403 -66.20261 2054 ft 116 kts 240°
2026-04-30 01:13 18.47774 -66.20794 1974 ft 119 kts 191°
2026-04-30 01:13 18.46983 -66.20828 1985 ft 111 kts 169°
2026-04-30 01:13 18.46220 -66.20737 1993 ft 109 kts 167°
2026-04-30 01:14 18.45453 -66.20637 1996 ft 109 kts 167°
2026-04-30 01:14 18.44698 -66.20533 1999 ft 108 kts 161°
2026-04-30 01:14 18.44112 -66.20113 1994 ft 101 kts 123°
2026-04-30 01:14 18.43725 -66.19508 1998 ft 100 kts 117°
2026-04-30 01:15 18.43437 -66.18851 1991 ft 97 kts 96°
2026-04-30 01:15 18.43396 -66.18149 1994 ft 96 kts 89°
2026-04-30 01:15 18.43385 -66.17442 1993 ft 96 kts 89°
2026-04-30 01:15 18.43378 -66.16737 1991 ft 95 kts 89°
2026-04-30 01:16 18.43375 -66.16028 1992 ft 96 kts 89°
2026-04-30 01:16 18.43372 -66.15329 1994 ft 96 kts 89°
2026-04-30 01:16 18.43371 -66.14615 1999 ft 97 kts 89°
2026-04-30 01:16 18.43370 -66.13909 1999 ft 96 kts 89°
2026-04-30 01:17 18.43368 -66.13193 2002 ft 97 kts 89°
2026-04-30 01:17 18.43367 -66.12488 1988 ft 97 kts 88°
2026-04-30 01:17 18.43360 -66.11833 1952 ft 82 kts 90°
2026-04-30 01:17 18.43352 -66.11239 1867 ft 81 kts 87°
2026-04-30 01:18 18.43363 -66.10625 1751 ft 86 kts 87°
2026-04-30 01:18 18.43372 -66.10004 1651 ft 83 kts 89°
2026-04-30 01:18 18.43383 -66.09395 1514 ft 85 kts 87°
2026-04-30 01:18 18.43378 -66.08782 1394 ft 83 kts 91°
2026-04-30 01:19 18.43366 -66.08186 1295 ft 79 kts 89°
2026-04-30 01:19 18.43372 -66.07587 1175 ft 84 kts 88°
2026-04-30 01:19 18.43372 -66.06971 1055 ft 84 kts 89°
2026-04-30 01:19 18.43376 -66.06359 946 ft 84 kts 89°
2026-04-30 01:20 18.43369 -66.05731 827 ft 87 kts 89°
2026-04-30 01:20 18.43370 -66.05094 713 ft 87 kts 89°
2026-04-30 01:20 18.43370 -66.04459 602 ft 86 kts 90°
2026-04-30 01:20 18.43363 -66.03825 487 ft 87 kts 90°
2026-04-30 01:21 18.43364 -66.03189 377 ft 87 kts 89°
2026-04-30 01:21 18.43358 -66.02555 265 ft 87 kts 91°
2026-04-30 01:21 18.43359 -66.01920 360 ft 84 kts 88°
2026-04-30 01:21 18.43437 -66.01344 632 ft 77 kts 63°
2026-04-30 01:22 18.43862 -66.01052 894 ft 77 kts 13°
2026-04-30 01:22 18.44400 -66.01177 1112 ft 84 kts 333°
2026-04-30 01:22 18.44838 -66.01609 1330 ft 88 kts 318°
2026-04-30 01:22 18.45245 -66.02093 1549 ft 89 kts 316°
2026-04-30 01:23 18.45654 -66.02594 1769 ft 90 kts 316°
2026-04-30 01:23 18.46062 -66.03095 1980 ft 91 kts 315°
2026-04-30 01:23 18.46477 -66.03597 2196 ft 91 kts 316°
2026-04-30 01:23 18.46894 -66.04105 2407 ft 92 kts 315°
2026-04-30 01:24 18.47358 -66.04658 2480 ft 108 kts 316°
2026-04-30 01:24 18.47885 -66.05272 2481 ft 114 kts 317°
2026-04-30 01:24 18.48410 -66.05890 2479 ft 110 kts 316°
2026-04-30 01:24 18.48912 -66.06480 2478 ft 107 kts 316°
2026-04-30 01:25 18.49407 -66.07072 2478 ft 106 kts 317°
2026-04-30 01:25 18.49894 -66.07648 2386 ft 105 kts 317°
2026-04-30 01:25 18.50377 -66.08225 2264 ft 103 kts 317°
2026-04-30 01:25 18.50842 -66.08787 2144 ft 101 kts 317°
2026-04-30 01:26 18.51293 -66.09336 2083 ft 95 kts 316°
2026-04-30 01:26 18.51585 -66.09930 2075 ft 92 kts 278°
2026-04-30 01:26 18.51576 -66.10652 2086 ft 105 kts 267°
2026-04-30 01:26 18.51525 -66.11453 2082 ft 113 kts 267°
2026-04-30 01:27 18.51466 -66.12297 2081 ft 116 kts 266°
2026-04-30 01:27 18.51405 -66.13152 2079 ft 116 kts 267°
2026-04-30 01:27 18.51345 -66.13992 2078 ft 116 kts 267°
2026-04-30 01:27 18.51285 -66.14848 2079 ft 116 kts 267°
2026-04-30 01:28 18.51222 -66.15693 2079 ft 116 kts 266°
2026-04-30 01:28 18.51158 -66.16538 2079 ft 116 kts 267°
2026-04-30 01:28 18.51096 -66.17392 2078 ft 116 kts 266°
2026-04-30 01:28 18.51035 -66.18234 2078 ft 116 kts 267°
2026-04-30 01:29 18.50890 -66.19062 2077 ft 116 kts 242°
2026-04-30 01:29 18.50326 -66.19625 2077 ft 111 kts 199°
2026-04-30 01:29 18.49582 -66.19765 2080 ft 107 kts 179°
2026-04-30 01:29 18.48836 -66.19810 2081 ft 107 kts 177°
2026-04-30 01:30 18.48081 -66.19867 2082 ft 108 kts 181°
2026-04-30 01:30 18.47331 -66.19960 2083 ft 107 kts 177°
2026-04-30 01:30 18.46590 -66.19949 2086 ft 106 kts 172°
2026-04-30 01:30 18.45847 -66.19924 2089 ft 106 kts 173°
2026-04-30 01:31 18.45097 -66.19955 2089 ft 107 kts 176°
2026-04-30 01:31 18.44353 -66.20000 2092 ft 107 kts 176°
2026-04-30 01:31 18.43600 -66.20016 2092 ft 106 kts 169°
2026-04-30 01:31 18.42869 -66.19936 2093 ft 105 kts 167°
2026-04-30 01:32 18.42133 -66.19848 2094 ft 105 kts 167°
2026-04-30 01:32 18.41402 -66.19759 2096 ft 105 kts 167°
2026-04-30 01:32 18.40678 -66.19626 2093 ft 103 kts 158°
2026-04-30 01:32 18.39990 -66.19415 2095 ft 103 kts 157°
2026-04-30 01:33 18.39300 -66.19199 2098 ft 103 kts 156°
2026-04-30 01:33 18.38637 -66.18934 2099 ft 99 kts 137°
2026-04-30 01:33 18.38301 -66.18340 2080 ft 96 kts 94°
2026-04-30 01:33 18.38465 -66.17674 2097 ft 92 kts 70°
2026-04-30 01:34 18.38689 -66.17046 2103 ft 91 kts 71°
2026-04-30 01:34 18.38892 -66.16429 2056 ft 87 kts 72°
2026-04-30 01:34 18.39090 -66.15817 1951 ft 89 kts 71°
2026-04-30 01:34 18.39302 -66.15202 1841 ft 90 kts 71°
2026-04-30 01:35 18.39514 -66.14571 1737 ft 91 kts 72°
2026-04-30 01:35 18.39743 -66.13959 1676 ft 88 kts 69°
2026-04-30 01:35 18.39961 -66.13332 1664 ft 92 kts 71°
2026-04-30 01:35 18.40183 -66.12691 1685 ft 93 kts 70°
2026-04-30 01:36 18.40405 -66.12046 1701 ft 93 kts 71°
2026-04-30 01:36 18.40601 -66.11393 1713 ft 94 kts 73°
2026-04-30 01:36 18.40789 -66.10727 1733 ft 94 kts 73°
2026-04-30 01:36 18.40989 -66.10066 1722 ft 93 kts 71°
2026-04-30 01:37 18.41200 -66.09463 1712 ft 86 kts 70°
2026-04-30 01:37 18.41408 -66.08858 1682 ft 87 kts 72°
2026-04-30 01:37 18.41602 -66.08251 1572 ft 87 kts 71°
2026-04-30 01:37 18.41806 -66.07645 1435 ft 90 kts 73°
2026-04-30 01:38 18.41985 -66.07015 1278 ft 89 kts 74°
2026-04-30 01:38 18.42184 -66.06413 1137 ft 85 kts 73°
2026-04-30 01:38 18.42375 -66.05830 994 ft 84 kts 71°
2026-04-30 01:38 18.42568 -66.05252 854 ft 84 kts 71°
2026-04-30 01:39 18.42759 -66.04658 707 ft 86 kts 73°
2026-04-30 01:39 18.42944 -66.04059 578 ft 85 kts 72°
2026-04-30 01:39 18.43125 -66.03477 474 ft 84 kts 75°
2026-04-30 01:39 18.43317 -66.02889 351 ft 86 kts 70°
2026-04-30 01:40 18.43543 -66.02312 228 ft 79 kts 70°
2026-04-30 01:40 18.43738 -66.01839 171 ft 71 kts 66°
2026-04-30 01:40 18.43946 -66.01322 37 ft 75 kts 69°
2026-04-30 01:40 18.44106 -66.00918 15 ft 46 kts 69°
2026-04-30 01:41 18.44273 -66.00514 46 ft 76 kts 66°
2026-04-30 01:41 18.44501 -65.99971 261 ft 80 kts 67°
2026-04-30 01:41 18.44745 -65.99458 525 ft 78 kts 49°